TimePDT,TemperatureF,Dew PointF,Humidity,Sea Level PressureIn,VisibilityMPH,Wind Direction,Wind SpeedMPH,Gust SpeedMPH,PrecipitationIn,Events,Conditions,WindDirDegrees,DateUTC
12:52 AM,61.0,57.0,87,29.92,10.0,ENE,3.5,-,N/A,,Scattered Clouds,60,2012-10-11 07:52:00
1:52 AM,60.1,57.0,90,29.91,8.0,Calm,Calm,-,N/A,,Mostly Cloudy,0,2012-10-11 08:52:00
2:23 AM,59.0,55.4,88,29.91,5.0,Calm,Calm,-,0.01,Rain,Light Rain,0,2012-10-11 09:23:00
2:29 AM,60.8,57.2,88,29.91,1.8,Calm,Calm,-,0.06,Rain,Rain,0,2012-10-11 09:29:00
2:36 AM,60.8,57.2,88,29.90,3.0,North,3.5,-,0.07,Rain,Light Rain,10,2012-10-11 09:36:00
2:44 AM,60.8,57.2,88,29.90,9.0,ENE,3.5,-,0.07,,Overcast,60,2012-10-11 09:44:00
2:52 AM,61.0,57.9,90,29.90,8.0,Calm,Calm,-,0.07,,Mostly Cloudy,0,2012-10-11 09:52:00
3:52 AM,60.1,57.9,93,29.89,7.0,Calm,Calm,-,N/A,,Mostly Cloudy,0,2012-10-11 10:52:00
4:06 AM,59.0,57.2,94,29.89,9.0,Calm,Calm,-,N/A,,Overcast,0,2012-10-11 11:06:00
4:27 AM,60.8,57.2,88,29.89,7.0,Calm,Calm,-,N/A,,Overcast,0,2012-10-11 11:27:00
4:52 AM,59.0,55.9,90,29.89,7.0,Calm,Calm,-,N/A,,Scattered Clouds,0,2012-10-11 11:52:00
5:47 AM,57.2,55.4,94,29.90,1.8,Calm,Calm,-,N/A,,Scattered Clouds,0,2012-10-11 12:47:00
5:52 AM,57.0,55.0,93,29.90,1.2,Calm,Calm,-,N/A,,Mostly Cloudy,0,2012-10-11 12:52:00
5:58 AM,57.2,55.4,94,29.90,3.0,Calm,Calm,-,N/A,,Mostly Cloudy,0,2012-10-11 12:58:00
7:08 AM,59.0,57.2,94,29.90,6.0,Calm,Calm,-,N/A,,Overcast,0,2012-10-11 14:08:00
7:29 AM,60.8,57.2,88,29.91,5.0,NE,4.6,-,N/A,,Overcast,40,2012-10-11 14:29:00
7:52 AM,60.1,57.0,90,29.91,6.0,NNE,4.6,-,N/A,,Overcast,30,2012-10-11 14:52:00
8:52 AM,62.1,55.9,80,29.93,10.0,SE,4.6,-,N/A,,Mostly Cloudy,140,2012-10-11 15:52:00
9:52 AM,66.0,55.9,70,29.93,10.0,SE,6.9,-,N/A,Thunderstorm,Mostly Cloudy,140,2012-10-11 16:52:00
10:16 AM,62.6,55.4,77,29.95,1.5,WNW,12.7,20.7,0.07,Rain,Light Rain,290,2012-10-11 17:16:00
10:18 AM,60.8,55.4,82,29.94,0.8,WNW,15.0,20.7,0.15,Rain-Thunderstorm,Heavy Rain,290,2012-10-11 17:18:00
10:23 AM,59.0,55.4,88,29.94,0.2,NW,15.0,-,0.41,Fog-Rain-Thunderstorm,Heavy Thunderstorms and Rain,310,2012-10-11 17:23:00
10:36 AM,57.2,55.4,94,29.96,1.2,NW,4.6,-,0.52,Rain-Thunderstorm,Light Thunderstorms and Rain,320,2012-10-11 17:36:00
10:52 AM,57.0,-9999,N/A,29.96,1.5,ENE,8.1,-,0.62,Rain-Thunderstorm,Heavy Thunderstorms and Rain,70,2012-10-11 17:52:00
11:09 AM,57.2,-9999,N/A,29.95,3.0,NE,4.6,-,0.04,Rain-Thunderstorm,Light Thunderstorms and Rain,50,2012-10-11 18:09:00
11:17 AM,57.2,-9999,N/A,29.95,7.0,ENE,6.9,-,0.05,Rain,Light Rain,60,2012-10-11 18:17:00
11:52 AM,62.1,-9999,N/A,29.95,10.0,Variable,3.5,-,0.05,,Overcast,0,2012-10-11 18:52:00
1:52 PM,70.0,48.9,47,29.90,10.0,South,4.6,-,N/A,,Clear,180,2012-10-11 20:52:00
2:52 PM,70.0,50.0,49,29.90,10.0,SW,10.4,-,N/A,,Clear,230,2012-10-11 21:52:00
4:52 PM,66.9,54.0,63,29.90,10.0,WSW,8.1,-,N/A,,Clear,250,2012-10-11 23:52:00
6:26 PM,64.4,53.6,68,29.91,10.0,West,5.8,-,N/A,,Mostly Cloudy,260,2012-10-12 01:26:00
6:39 PM,64.4,53.6,68,29.91,10.0,West,5.8,-,N/A,,Scattered Clouds,260,2012-10-12 01:39:00
6:52 PM,64.0,53.1,67,29.92,10.0,West,3.5,-,N/A,,Partly Cloudy,260,2012-10-12 01:52:00
8:52 PM,55.9,52.0,87,29.94,10.0,NNW,3.5,-,N/A,,Clear,330,2012-10-12 03:52:00
10:52 PM,57.9,54.0,87,29.97,10.0,Calm,Calm,-,N/A,,Scattered Clouds,0,2012-10-12 05:52:00
11:52 PM,57.9,54.0,87,29.98,10.0,WNW,6.9,-,N/A,,Mostly Cloudy,290,2012-10-12 06:52:00